Flag for U.S.A. Weather past 2 weeks in Rapid City, South Dakota, U.S.A.

Now
46 °F

Overcast.


Feels Like: 44 °F
Forecast: 26 / 51 °F
Wind: 5 mph from West

Location: Ellsworth Air Force Base

Current Time: Mar 6, 2015 at 10:06:01 AM

Latest Report: Mar 6, 2015 at 8:58 AM


Visibility: 10 mi

Pressure: 30.21 "Hg

Humidity: 35%

Dew point: 20 °F

Location of Rapid CityLocation

Historic Weather in Rapid City — Graph

°F

Rapid City temperature yesterday

Maximum temperature yesterday: 46 °F (at 1:58 PM)
Minimum temperature yesterday: 2 °F (at 4:58 AM)
Average temperature yesterday: 26 °F

Past Weeks' High & Low Weather Summary

 TemperatureHumidityPressure
High55 °F (Feb 24, 3:03 PM)100% (Feb 25, 6:58 AM)30.78 "Hg (Feb 25, 6:58 AM)
Low-4 °F (Feb 26, 8:58 PM)14% (Feb 23, 2:58 PM)29.66 "Hg (Feb 24, 9:58 PM)
Average22 °F63%30.22 "Hg
* Reported Feb 19 8:58 AM — Mar 6 8:58 AM, Rapid City, Weather by CustomWeather, © 2015

Note: Actual official high and low records may vary slightly from our data, if they occured in-between our weather recording intervals... More about our weather records

Advertising

Rapid City weather history for previous 24 hours

 ConditionsComfort  
Time TempWeatherWind HumidityBarometerVisibility
8:58 AM
Fri, Mar 6
46 °FOvercast.5 mph35%30.21 "Hg10 mi
7:58 AM39 °FOvercast.7 mph45%30.20 "Hg10 mi
6:58 AM29 °FPassing clouds.9 mph60%30.21 "Hg10 mi
5:58 AM30 °FSunny.8 mph57%30.19 "Hg10 mi
4:58 AM30 °FClear.8 mph52%30.17 "Hg9 mi
3:58 AM31 °FPassing clouds.6 mph50%30.09 "Hg10 mi
2:58 AM30 °FPassing clouds.7 mph56%30.09 "Hg10 mi
1:58 AM30 °FClear.8 mph56%30.16 "Hg10 mi
12:58 AM30 °FClear.9 mph56%30.16 "Hg10 mi
11:58 PM
Thu, Mar 5
29 °FClear.9 mph60%30.17 "Hg10 mi
10:58 PM29 °FClear.7 mph61%30.19 "Hg10 mi
9:58 PM28 °FClear.5 mph60%30.22 "Hg10 mi
8:58 PM26 °FClear.5 mph65%30.24 "Hg10 mi
7:58 PM31 °FClear.5 mph57%30.26 "Hg10 mi
6:58 PM31 °FClear.8 mph60%30.28 "Hg10 mi
5:58 PM40 °FClear.8 mph42%30.26 "Hg10 mi
4:58 PM43 °FClear.12 mph38%30.24 "Hg10 mi
3:58 PM45 °FSunny.20 mph34%30.21 "Hg10 mi
2:58 PM45 °FSunny.21 mph32%30.19 "Hg10 mi
1:58 PM46 °FSunny.21 mph30%30.19 "Hg10 mi
12:58 PM44 °FScattered clouds.18 mph33%30.19 "Hg10 mi
11:58 AM42 °FPartly sunny.16 mph32%30.22 "Hg10 mi
10:58 AM37 °FPartly sunny.3 mph33%30.25 "Hg10 mi
Weather by CustomWeather, © 2015

See weather overviewHow to use our weather pages